Weather History for Del Bajio, Mexico

Change the Weather History Date:

Thursday, October 10, 2013

  Actual Average Record
Temperature  
Mean Temperature 68 °F -  
Max Temperature 86 °F 79 °F 87 °F (2008)
Min Temperature 51 °F 55 °F 46 °F (2010)
Cooling Degree Days 4    
Growing Degree Days 18 (Base 50)    
Moisture  
Dew Point 50 °F    
Average Humidity 55    
Maximum Humidity 82    
Minimum Humidity 27    
Precipitation  
Precipitation 0.00 in - - ()
Sea Level Pressure  
Sea Level Pressure 30.07 in    
Wind  
Wind Speed 3 mph ()    
Max Wind Speed 7 mph    
Max Gust Speed -    
Visibility 9.0 miles    
Events      
Averages and records for this station are not official NWS values.
T = Trace of Precipitation, MM = Missing Value Source: Averaged Metar Reports

Daily Weather History Graph

Daily Weather History Graph

Search for Another Location

Airport:

Trip Planner

Search our weather history database for the weather conditions in past years. The results will help you decide how hot, cold, wet, or windy it might be!

Date:

Astronomy

Oct. 10, 2013 Rise Set
Actual Time 7:39 AM CDT 7:25 PM CDT
Civil Twilight 7:17 AM CDT 7:47 PM CDT
Nautical Twilight 6:51 AM CDT 8:13 PM CDT
Astronomical Twilight 6:26 AM CDT 8:39 PM CDT
Moon 1:06 PM CDT (10/10) No Moon Set
Length of Visible Light 12h 30m
Length of Day
11h 45m
Waxing Crescent, 36% of the Moon is Illuminated
Oct 10
Waxing Crescent
Oct 11
First Quarter
Oct 18
Full
Oct 26
Last Quarter
Nov 3
New

Hourly Weather History & Observations

Time (CDT) Temp. Dew Point Humidity Pressure Visibility Wind Dir Wind Speed Gust Speed Precip Events Conditions
12:50 AM 62.6 °F 51.8 °F 68% 29.86 in 8.0 mi SSE 6.9 mph - N/A   Scattered Clouds
1:45 AM 60.8 °F 51.8 °F 72% 30.24 in 8.0 mi ENE 4.6 mph - N/A   Scattered Clouds
2:44 AM 57.2 °F 51.8 °F 82% 30.24 in 8.0 mi Calm Calm - N/A   Scattered Clouds
3:44 AM 55.4 °F 50.0 °F 82% 29.83 in 8.0 mi North 5.8 mph - N/A   Scattered Clouds
4:44 AM 55.4 °F 48.2 °F 77% 30.21 in 8.0 mi NNE 6.9 mph - N/A   Scattered Clouds
5:40 AM 55.4 °F 48.2 °F 77% 30.21 in 8.0 mi NNE 6.9 mph - N/A   Scattered Clouds
6:44 AM 53.6 °F 46.4 °F 77% 29.91 in 8.0 mi Calm Calm - N/A   Scattered Clouds
7:48 AM 51.8 °F 46.4 °F 82% 30.24 in 10.0 mi NE 5.8 mph - N/A   Scattered Clouds
8:42 AM 57.2 °F 48.2 °F 72% 30.24 in 10.0 mi NE 4.6 mph - N/A   Mostly Cloudy
9:49 AM 69.8 °F 50.0 °F 49% 29.90 in 10.0 mi SE 4.6 mph - N/A   Mostly Cloudy
10:49 AM 73.4 °F 51.8 °F 47% 30.27 in 10.0 mi Calm Calm - N/A   Mostly Cloudy
11:45 AM 75.2 °F 50.0 °F 41% 30.27 in 10.0 mi Calm Calm - N/A   Scattered Clouds
12:42 PM 78.8 °F 48.2 °F 34% 29.85 in 10.0 mi Calm Calm - N/A   Partly Cloudy
1:49 PM 80.6 °F 48.2 °F 32% 30.21 in 10.0 mi South 4.6 mph - N/A   Scattered Clouds
2:48 PM 84.2 °F 50.0 °F 30% 30.18 in 10.0 mi East 4.6 mph - N/A   Scattered Clouds
3:41 PM 86.0 °F 48.2 °F 27% 29.71 in 10.0 mi SE 4.6 mph - N/A   Scattered Clouds
5:49 PM 84.2 °F 50.0 °F 30% 30.09 in 10.0 mi Calm Calm - N/A   Scattered Clouds
6:42 PM 82.4 °F 50.0 °F 32% 29.70 in 10.0 mi Calm Calm - N/A   Scattered Clouds
7:46 PM 73.4 °F 51.8 °F 47% 30.12 in 10.0 mi Calm Calm - N/A   Scattered Clouds
8:45 PM 68.0 °F 53.6 °F 60% 30.15 in 8.0 mi ENE 4.6 mph - N/A   Scattered Clouds
9:50 PM 69.8 °F 48.2 °F 46% 29.79 in 8.0 mi ENE 5.8 mph - N/A   Mostly Cloudy
10:47 PM 68.0 °F 50.0 °F 52% 30.18 in 8.0 mi ESE 6.9 mph - N/A   Mostly Cloudy
11:50 PM 66.2 °F 51.8 °F 60% 30.19 in 8.0 mi Calm Calm - N/A   Mostly Cloudy